Location: Calberlah
(52.4230°N, 10.6240°E)
Time: 00:46:06
(UTC+00:00)

Cosmos 2181 Rocket - Pass Details

Date: 19 May 2025
Orbit: 952 x 1013 km, 82.9° (Epoch: 23 June)

Event Time Altitude Azimuth Distance (km) Brightness Sun altitude
Exits shadow 20:58:42 11° 177° (S) 2,671 5.8 -11.9°
Maximum altitude 21:04:46 70° 95° (E) 1,054 4.1 -12.3°
Drops below altitude 10° 21:11:08 10° 14° (NNE) 2,788 7.1 -12.8°
Sets 21:13:42 0° 12° (NNE) 3,748 7.9 -13.0°
